TimeCST,TemperatureF,Dew PointF,Humidity,Sea Level PressureIn,VisibilityMPH,Wind Direction,Wind SpeedMPH,Gust SpeedMPH,PrecipitationIn,Events,Conditions,WindDirDegrees,DateUTC
12:52 AM,24.1,18.0,77,30.43,10.0,South,4.6,-,N/A,,Overcast,190,2013-01-18 06:52:00
1:52 AM,24.1,19.0,81,30.43,8.0,SSE,5.8,-,N/A,,Clear,160,2013-01-18 07:52:00
2:52 AM,25.0,19.0,78,30.42,10.0,SSE,5.8,-,N/A,,Clear,150,2013-01-18 08:52:00
3:52 AM,25.0,19.0,78,30.39,10.0,SSE,8.1,-,N/A,,Clear,160,2013-01-18 09:52:00
4:52 AM,25.0,19.0,78,30.36,10.0,South,8.1,-,N/A,,Clear,170,2013-01-18 10:52:00
5:52 AM,28.9,19.9,69,30.33,10.0,South,13.8,-,N/A,,Overcast,190,2013-01-18 11:52:00
6:52 AM,30.0,21.0,69,30.30,10.0,South,16.1,24.2,N/A,,Clear,190,2013-01-18 12:52:00
7:52 AM,28.9,21.0,72,30.27,10.0,South,23.0,28.8,N/A,,Clear,190,2013-01-18 13:52:00
8:52 AM,33.1,23.0,66,30.24,10.0,South,24.2,33.4,N/A,,Clear,190,2013-01-18 14:52:00
9:52 AM,34.0,23.0,64,30.22,10.0,SSW,21.9,33.4,N/A,,Clear,200,2013-01-18 15:52:00
10:52 AM,37.9,25.0,60,30.18,10.0,SSW,24.2,35.7,N/A,,Clear,200,2013-01-18 16:52:00
11:52 AM,41.0,27.0,57,30.11,10.0,SSW,27.6,36.8,N/A,,Clear,200,2013-01-18 17:52:00
12:52 PM,44.1,28.0,53,30.04,10.0,SSW,32.2,40.3,N/A,,Clear,200,2013-01-18 18:52:00
1:52 PM,46.0,30.0,54,30.00,10.0,SSW,23.0,36.8,N/A,,Clear,200,2013-01-18 19:52:00
2:52 PM,46.9,30.9,54,29.96,10.0,SSW,18.4,33.4,N/A,,Clear,200,2013-01-18 20:52:00
3:52 PM,46.9,32.0,56,29.96,10.0,SSW,17.3,-,N/A,,Clear,210,2013-01-18 21:52:00
4:52 PM,45.0,30.9,58,29.95,10.0,SSW,16.1,-,N/A,,Clear,200,2013-01-18 22:52:00
5:52 PM,45.0,30.9,58,29.95,10.0,SSW,15.0,-,N/A,,Clear,200,2013-01-18 23:52:00
6:52 PM,45.0,30.9,58,29.95,10.0,SSW,19.6,-,N/A,,Clear,200,2013-01-19 00:52:00
7:52 PM,43.0,30.0,60,29.95,10.0,SSW,18.4,27.6,N/A,,Clear,210,2013-01-19 01:52:00
8:52 PM,44.1,30.9,60,29.94,10.0,SSW,19.6,-,N/A,,Clear,210,2013-01-19 02:52:00
9:52 PM,43.0,30.9,62,29.93,10.0,SW,18.4,26.5,N/A,,Clear,220,2013-01-19 03:52:00
10:52 PM,43.0,30.9,62,29.92,10.0,SW,19.6,-,N/A,,Clear,220,2013-01-19 04:52:00
11:52 PM,42.1,30.9,65,29.92,10.0,SW,17.3,-,N/A,,Clear,230,2013-01-19 05:52:00